Time,TemperatureF,DewpointF,PressureIn,WindDirection,WindDirectionDegrees,WindSpeedMPH,WindSpeedGustMPH,Humidity,HourlyPrecipIn,Conditions,Clouds,dailyrainin,SoftwareType,DateUTC
2013-04-02 00:00:00,55.6,54.5,29.88,West,270,1.0,2.0,96,0.00,,---,0.01,VWS V14.01,2013-04-02 04:00:00,
2013-04-02 00:05:00,55.6,54.5,29.88,West,279,1.0,2.0,96,0.00,,---,0.00,VWS V14.01,2013-04-02 04:05:00,
2013-04-02 00:10:00,55.3,54.2,29.88,WNW,282,0.0,1.0,96,0.00,,---,0.00,VWS V14.01,2013-04-02 04:10:00,
2013-04-02 00:15:00,55.2,54.1,29.88,WNW,285,0.0,0.0,96,0.00,,---,0.00,VWS V14.01,2013-04-02 04:15:00,
2013-04-02 00:20:00,55.1,54.0,29.88,WNW,300,2.0,3.0,96,0.00,,---,0.00,VWS V14.01,2013-04-02 04:20:00,
2013-04-02 00:25:00,55.1,54.0,29.88,NW,307,1.0,4.0,96,0.00,,---,0.00,VWS V14.01,2013-04-02 04:25:00,
2013-04-02 00:30:00,55.0,53.9,29.89,NW,313,5.0,5.0,96,0.00,,---,0.00,VWS V14.01,2013-04-02 04:30:00,
2013-04-02 00:35:00,55.0,53.9,29.89,NW,317,4.0,6.0,96,0.00,,---,0.00,VWS V14.01,2013-04-02 04:35:00,
2013-04-02 00:40:00,55.0,53.9,29.89,NW,315,4.0,5.0,96,0.00,,---,0.00,VWS V14.01,2013-04-02 04:40:00,
2013-04-02 00:45:00,55.0,53.9,29.89,NNW,327,3.0,5.0,96,0.00,,---,0.00,VWS V14.01,2013-04-02 04:45:00,
2013-04-02 00:50:00,54.9,53.8,29.89,NNW,331,5.0,5.0,96,0.00,,---,0.00,VWS V14.01,2013-04-02 04:50:00,
2013-04-02 00:55:00,54.8,53.7,29.90,North,355,3.0,5.0,96,0.00,,---,0.00,VWS V14.01,2013-04-02 04:55:00,
2013-04-02 01:00:00,54.8,53.7,29.90,North,5,2.0,4.0,96,0.00,,---,0.00,VWS V14.01,2013-04-02 05:00:00,
2013-04-02 01:05:00,54.6,53.5,29.90,NNE,17,4.0,4.0,96,0.00,,---,0.00,VWS V14.01,2013-04-02 05:05:00,
2013-04-02 01:10:00,54.5,53.1,29.90,North,5,4.0,4.0,95,0.00,,---,0.00,VWS V14.01,2013-04-02 05:10:00,
2013-04-02 01:15:00,54.4,53.0,29.91,NNE,12,2.0,3.0,95,0.00,,---,0.00,VWS V14.01,2013-04-02 05:15:00,
2013-04-02 01:20:00,54.2,52.8,29.91,North,5,0.0,2.0,95,0.00,,---,0.00,VWS V14.01,2013-04-02 05:20:00,
2013-04-02 01:25:00,54.1,53.0,29.91,North,351,4.0,4.0,96,0.00,,---,0.00,VWS V14.01,2013-04-02 05:25:00,
2013-04-02 01:30:00,54.1,53.0,29.91,North,5,3.0,4.0,96,0.00,,---,0.00,VWS V14.01,2013-04-02 05:30:00,
2013-04-02 01:35:00,53.9,52.5,29.91,North,350,3.0,4.0,95,0.00,,---,0.00,VWS V14.01,2013-04-02 05:35:00,
2013-04-02 01:40:00,53.7,52.3,29.91,North,5,1.0,3.0,95,0.00,,---,0.00,VWS V14.01,2013-04-02 05:40:00,
2013-04-02 01:45:00,53.6,52.5,29.91,North,350,2.0,6.0,96,0.00,,---,0.00,VWS V14.01,2013-04-02 05:45:00,
2013-04-02 01:50:00,53.5,52.4,29.92,NNW,344,7.0,7.0,96,0.00,,---,0.00,VWS V14.01,2013-04-02 05:50:00,
2013-04-02 01:55:00,53.4,52.0,29.91,NE,40,6.0,8.0,95,0.00,,---,0.00,VWS V14.01,2013-04-02 05:55:00,
2013-04-02 02:00:00,53.5,52.1,29.92,NNW,334,4.0,9.0,95,0.00,,---,0.00,VWS V14.01,2013-04-02 06:00:00,
2013-04-02 02:05:00,53.7,52.0,29.92,NNE,17,5.0,10.0,94,0.00,,---,0.00,VWS V14.01,2013-04-02 06:05:00,
2013-04-02 02:10:00,53.9,52.2,29.92,North,360,9.0,9.0,94,0.00,,---,0.00,VWS V14.01,2013-04-02 06:10:00,
2013-04-02 02:15:00,54.1,51.8,29.92,North,360,4.0,9.0,92,0.00,,---,0.00,VWS V14.01,2013-04-02 06:15:00,
2013-04-02 02:20:00,54.2,51.9,29.92,NE,49,3.0,6.0,92,0.00,,---,0.00,VWS V14.01,2013-04-02 06:20:00,
2013-04-02 02:25:00,54.2,51.6,29.92,NNE,32,3.0,8.0,91,0.00,,---,0.00,VWS V14.01,2013-04-02 06:25:00,
2013-04-02 02:30:00,54.3,51.4,29.93,North,5,4.0,7.0,90,0.00,,---,0.00,VWS V14.01,2013-04-02 06:30:00,
2013-04-02 02:35:00,54.3,51.4,29.93,NNE,15,5.0,7.0,90,0.00,,---,0.00,VWS V14.01,2013-04-02 06:35:00,
2013-04-02 02:40:00,54.2,51.0,29.93,NNE,22,4.0,7.0,89,0.00,,---,0.00,VWS V14.01,2013-04-02 06:40:00,
2013-04-02 02:45:00,54.2,50.7,29.93,NE,55,7.0,10.0,88,0.00,,---,0.00,VWS V14.01,2013-04-02 06:45:00,
2013-04-02 02:50:00,54.4,50.6,29.94,NE,35,6.0,10.0,87,0.00,,---,0.00,VWS V14.01,2013-04-02 06:50:00,
2013-04-02 02:55:00,54.5,50.4,29.94,NNE,30,9.0,12.0,86,0.00,,---,0.00,VWS V14.01,2013-04-02 06:55:00,
2013-04-02 03:00:00,54.6,49.9,29.94,NE,45,3.0,12.0,84,0.00,,---,0.00,VWS V14.01,2013-04-02 07:00:00,
2013-04-02 03:05:00,54.7,49.3,29.94,NE,44,6.0,11.0,82,0.00,,---,0.00,VWS V14.01,2013-04-02 07:05:00,
2013-04-02 03:10:00,54.7,49.0,29.94,NNE,25,10.0,12.0,81,0.00,,---,0.00,VWS V14.01,2013-04-02 07:10:00,
2013-04-02 03:15:00,54.6,48.2,29.94,NNE,22,5.0,11.0,79,0.00,,---,0.00,VWS V14.01,2013-04-02 07:15:00,
2013-04-02 03:20:00,54.3,47.9,29.94,NNE,33,6.0,12.0,79,0.00,,---,0.00,VWS V14.01,2013-04-02 07:20:00,
2013-04-02 03:25:00,54.0,47.6,29.95,NE,46,6.0,10.0,79,0.00,,---,0.00,VWS V14.01,2013-04-02 07:25:00,
2013-04-02 03:30:00,53.7,47.3,29.95,NE,53,7.0,9.0,79,0.00,,---,0.00,VWS V14.01,2013-04-02 07:30:00,
2013-04-02 03:35:00,53.4,47.1,29.95,NNE,30,8.0,11.0,79,0.00,,---,0.00,VWS V14.01,2013-04-02 07:35:00,
2013-04-02 03:40:00,53.1,46.8,29.95,ENE,61,8.0,9.0,79,0.00,,---,0.00,VWS V14.01,2013-04-02 07:40:00,
2013-04-02 03:45:00,52.8,46.1,29.95,NE,52,9.0,13.0,78,0.00,,---,0.00,VWS V14.01,2013-04-02 07:45:00,
2013-04-02 03:50:00,52.6,46.0,29.96,NE,36,8.0,13.0,78,0.00,,---,0.00,VWS V14.01,2013-04-02 07:50:00,
2013-04-02 03:55:00,52.4,45.8,29.96,NNE,28,4.0,10.0,78,0.00,,---,0.00,VWS V14.01,2013-04-02 07:55:00,
2013-04-02 04:00:00,52.2,45.6,29.96,NE,55,3.0,5.0,78,0.00,,---,0.00,VWS V14.01,2013-04-02 08:00:00,
2013-04-02 04:05:00,52.0,45.7,29.96,NE,37,4.0,13.0,79,0.00,,---,0.00,VWS V14.01,2013-04-02 08:05:00,
2013-04-02 04:10:00,51.8,45.2,29.96,NE,49,10.0,10.0,78,0.00,,---,0.00,VWS V14.01,2013-04-02 08:10:00,
2013-04-02 04:15:00,51.6,45.0,29.97,NE,42,7.0,10.0,78,0.00,,---,0.00,VWS V14.01,2013-04-02 08:15:00,
2013-04-02 04:20:00,51.4,44.8,29.97,NE,36,8.0,10.0,78,0.00,,---,0.00,VWS V14.01,2013-04-02 08:20:00,
2013-04-02 04:25:00,51.3,44.7,29.97,North,5,6.0,9.0,78,0.00,,---,0.00,VWS V14.01,2013-04-02 08:25:00,
2013-04-02 04:30:00,51.1,44.5,29.97,NE,43,7.0,10.0,78,0.00,,---,0.00,VWS V14.01,2013-04-02 08:30:00,
2013-04-02 04:35:00,51.0,44.4,29.97,NE,37,4.0,9.0,78,0.00,,---,0.00,VWS V14.01,2013-04-02 08:35:00,
2013-04-02 04:40:00,50.9,44.3,29.97,NNE,26,11.0,11.0,78,0.00,,---,0.00,VWS V14.01,2013-04-02 08:40:00,
2013-04-02 04:45:00,50.8,44.2,29.97,NE,34,8.0,8.0,78,0.00,,---,0.00,VWS V14.01,2013-04-02 08:45:00,
2013-04-02 04:50:00,50.7,44.1,29.97,NE,50,5.0,10.0,78,0.00,,---,0.00,VWS V14.01,2013-04-02 08:50:00,
2013-04-02 04:55:00,50.6,44.0,29.98,NNE,30,9.0,9.0,78,0.00,,---,0.00,VWS V14.01,2013-04-02 08:55:00,
2013-04-02 05:00:00,50.4,43.8,29.98,ENE,62,5.0,8.0,78,0.00,,---,0.00,VWS V14.01,2013-04-02 09:00:00,
2013-04-02 05:05:00,50.3,43.7,29.98,NE,36,7.0,8.0,78,0.00,,---,0.00,VWS V14.01,2013-04-02 09:05:00,
2013-04-02 05:10:00,50.2,44.0,29.98,NNE,28,6.0,7.0,79,0.00,,---,0.00,VWS V14.01,2013-04-02 09:10:00,
2013-04-02 05:15:00,50.1,43.8,29.99,ENE,57,5.0,7.0,79,0.00,,---,0.00,VWS V14.01,2013-04-02 09:15:00,
2013-04-02 05:20:00,50.0,43.8,29.99,NE,39,5.0,9.0,79,0.00,,---,0.00,VWS V14.01,2013-04-02 09:20:00,
2013-04-02 05:25:00,49.9,43.7,29.99,NNE,22,5.0,7.0,79,0.00,,---,0.00,VWS V14.01,2013-04-02 09:25:00,
2013-04-02 05:30:00,49.8,43.9,29.99,NNE,33,7.0,9.0,80,0.00,,---,0.00,VWS V14.01,2013-04-02 09:30:00,
2013-04-02 05:35:00,49.6,43.7,29.99,ENE,70,2.0,9.0,80,0.00,,---,0.00,VWS V14.01,2013-04-02 09:35:00,
2013-04-02 05:40:00,49.5,43.6,30.00,NE,53,3.0,5.0,80,0.00,,---,0.00,VWS V14.01,2013-04-02 09:40:00,
2013-04-02 05:45:00,49.3,43.4,30.00,NE,50,7.0,10.0,80,0.00,,---,0.00,VWS V14.01,2013-04-02 09:45:00,
2013-04-02 05:50:00,49.3,43.4,30.00,NE,45,7.0,10.0,80,0.00,,---,0.00,VWS V14.01,2013-04-02 09:50:00,
2013-04-02 05:55:00,49.2,43.3,30.00,NNE,33,3.0,6.0,80,0.00,,---,0.00,VWS V14.01,2013-04-02 09:55:00,
2013-04-02 06:00:00,49.1,43.2,30.00,NE,40,5.0,6.0,80,0.00,,---,0.00,VWS V14.01,2013-04-02 10:00:00,
2013-04-02 06:05:00,49.0,43.1,30.00,NNE,32,5.0,8.0,80,0.00,,---,0.00,VWS V14.01,2013-04-02 10:05:00,
2013-04-02 06:10:00,48.8,42.9,30.01,NNE,30,3.0,7.0,80,0.00,,---,0.00,VWS V14.01,2013-04-02 10:10:00,
2013-04-02 06:15:00,48.7,42.8,30.01,NNE,33,4.0,8.0,80,0.00,,---,0.00,VWS V14.01,2013-04-02 10:15:00,
2013-04-02 06:20:00,48.6,42.7,30.01,NE,52,2.0,7.0,80,0.00,,---,0.00,VWS V14.01,2013-04-02 10:20:00,
2013-04-02 06:25:00,48.5,42.6,30.02,NNE,32,5.0,6.0,80,0.00,,---,0.00,VWS V14.01,2013-04-02 10:25:00,
2013-04-02 06:30:00,48.4,42.5,30.02,NE,34,2.0,5.0,80,0.00,,---,0.00,VWS V14.01,2013-04-02 10:30:00,
2013-04-02 06:35:00,48.2,42.3,30.02,NNE,22,4.0,5.0,80,0.00,,---,0.00,VWS V14.01,2013-04-02 10:35:00,
2013-04-02 06:40:00,48.1,42.2,30.03,NNE,22,5.0,7.0,80,0.00,,---,0.00,VWS V14.01,2013-04-02 10:40:00,
2013-04-02 06:45:00,47.9,42.0,30.03,NNE,32,4.0,7.0,80,0.00,,---,0.00,VWS V14.01,2013-04-02 10:45:00,
2013-04-02 06:50:00,47.8,41.9,30.04,NNE,14,5.0,6.0,80,0.00,,---,0.00,VWS V14.01,2013-04-02 10:50:00,
2013-04-02 06:55:00,47.8,41.9,30.04,NNE,19,6.0,6.0,80,0.00,,---,0.00,VWS V14.01,2013-04-02 10:55:00,
2013-04-02 07:00:00,47.7,41.8,30.04,NE,38,4.0,6.0,80,0.00,,---,0.00,VWS V14.01,2013-04-02 11:00:00,
2013-04-02 07:05:00,47.6,41.8,30.04,NNE,26,4.0,6.0,80,0.00,,---,0.00,VWS V14.01,2013-04-02 11:05:00,
2013-04-02 07:10:00,47.4,41.5,30.05,NNE,24,4.0,5.0,80,0.00,,---,0.00,VWS V14.01,2013-04-02 11:10:00,
2013-04-02 07:15:00,47.3,41.5,30.05,NNE,16,5.0,6.0,80,0.00,,---,0.00,VWS V14.01,2013-04-02 11:15:00,
2013-04-02 07:20:00,47.3,41.5,30.05,NNE,27,4.0,5.0,80,0.00,,---,0.00,VWS V14.01,2013-04-02 11:20:00,
2013-04-02 07:25:00,47.3,41.5,30.05,NNE,29,4.0,6.0,80,0.00,,---,0.00,VWS V14.01,2013-04-02 11:25:00,
2013-04-02 07:30:00,47.5,41.7,30.06,NE,52,5.0,7.0,80,0.00,,---,0.00,VWS V14.01,2013-04-02 11:30:00,
2013-04-02 07:35:00,47.7,41.8,30.06,NE,38,3.0,5.0,80,0.00,,---,0.00,VWS V14.01,2013-04-02 11:35:00,
2013-04-02 07:40:00,47.9,42.0,30.07,NE,47,7.0,7.0,80,0.00,,---,0.00,VWS V14.01,2013-04-02 11:40:00,
2013-04-02 07:45:00,47.9,41.4,30.07,NE,37,7.0,9.0,78,0.00,,---,0.00,VWS V14.01,2013-04-02 11:45:00,
2013-04-02 07:50:00,48.1,41.6,30.07,NE,36,6.0,9.0,78,0.00,,---,0.00,VWS V14.01,2013-04-02 11:50:00,
2013-04-02 07:55:00,48.2,41.3,30.08,NE,36,4.0,11.0,77,0.00,,---,0.00,VWS V14.01,2013-04-02 11:55:00,
2013-04-02 08:00:00,48.3,41.1,30.08,NNE,30,5.0,10.0,76,0.00,,---,0.00,VWS V14.01,2013-04-02 12:00:00,
2013-04-02 08:04:00,48.4,41.2,30.08,North,9,6.0,7.0,76,0.00,,---,0.00,VWS V14.01,2013-04-02 12:04:00,
2013-04-02 08:09:00,48.5,41.3,30.08,NE,42,6.0,8.0,76,0.00,,---,0.00,VWS V14.01,2013-04-02 12:09:00,
2013-04-02 08:15:00,48.6,41.4,30.08,NE,34,4.0,9.0,76,0.00,,---,0.00,VWS V14.01,2013-04-02 12:15:00,
2013-04-02 08:20:00,48.7,40.8,30.08,NNE,15,9.0,11.0,74,0.00,,---,0.00,VWS V14.01,2013-04-02 12:20:00,
2013-04-02 08:25:00,48.8,40.5,30.09,NE,36,8.0,10.0,73,0.00,,---,0.00,VWS V14.01,2013-04-02 12:25:00,
2013-04-02 08:30:00,48.9,40.3,30.09,NNE,26,6.0,10.0,72,0.00,,---,0.00,VWS V14.01,2013-04-02 12:30:00,
2013-04-02 08:35:00,48.9,40.3,30.09,NNE,33,4.0,11.0,72,0.00,,---,0.00,VWS V14.01,2013-04-02 12:35:00,
2013-04-02 08:40:00,49.1,41.2,30.09,NE,43,5.0,11.0,74,0.00,,---,0.00,VWS V14.01,2013-04-02 12:40:00,
2013-04-02 08:45:00,49.2,40.9,30.10,NNE,16,7.0,12.0,73,0.00,,---,0.00,VWS V14.01,2013-04-02 12:45:00,
2013-04-02 08:50:00,49.3,41.4,30.10,NNE,26,11.0,12.0,74,0.00,,---,0.00,VWS V14.01,2013-04-02 12:50:00,
2013-04-02 08:54:00,49.5,40.9,30.10,ENE,64,8.0,9.0,72,0.00,,---,0.00,VWS V14.01,2013-04-02 12:54:00,
2013-04-02 08:59:00,49.9,40.9,30.10,NE,56,7.0,9.0,71,0.00,,---,0.00,VWS V14.01,2013-04-02 12:59:00,
2013-04-02 09:04:00,49.9,39.4,30.10,ENE,66,11.0,13.0,67,0.00,,---,0.00,VWS V14.01,2013-04-02 13:04:00,
2013-04-02 09:09:00,50.1,38.8,30.10,NE,47,8.0,11.0,65,0.00,,---,0.00,VWS V14.01,2013-04-02 13:09:00,
2013-04-02 09:14:00,50.4,38.7,30.10,NE,38,10.0,13.0,64,0.00,,---,0.00,VWS V14.01,2013-04-02 13:14:00,
2013-04-02 09:19:00,50.5,38.4,30.11,NNE,17,8.0,11.0,63,0.00,,---,0.00,VWS V14.01,2013-04-02 13:19:00,
2013-04-02 09:24:00,50.7,38.6,30.11,NNE,14,7.0,9.0,63,0.00,,---,0.00,VWS V14.01,2013-04-02 13:24:00,
2013-04-02 09:29:00,51.0,38.5,30.11,ENE,60,10.0,11.0,62,0.00,,---,0.00,VWS V14.01,2013-04-02 13:29:00,
2013-04-02 09:34:00,51.6,39.0,30.10,NNE,26,7.0,7.0,62,0.00,,---,0.00,VWS V14.01,2013-04-02 13:34:00,
2013-04-02 09:39:00,51.9,38.0,30.10,NNE,21,4.0,8.0,59,0.00,,---,0.00,VWS V14.01,2013-04-02 13:39:00,
2013-04-02 09:44:00,51.7,35.6,30.11,NE,36,6.0,11.0,54,0.00,,---,0.00,VWS V14.01,2013-04-02 13:44:00,
2013-04-02 09:49:00,51.9,34.4,30.10,NNE,24,11.0,14.0,51,0.00,,---,0.00,VWS V14.01,2013-04-02 13:49:00,
2013-04-02 09:54:00,52.0,34.5,30.10,NNE,31,5.0,14.0,51,0.00,,---,0.00,VWS V14.01,2013-04-02 13:54:00,
2013-04-02 09:59:00,52.2,33.1,30.10,NNE,22,7.0,13.0,48,0.00,,---,0.00,VWS V14.01,2013-04-02 13:59:00,
2013-04-02 10:04:00,52.3,34.2,30.10,NE,54,9.0,13.0,50,0.00,,---,0.00,VWS V14.01,2013-04-02 14:04:00,
2013-04-02 10:09:00,52.4,33.3,30.10,NNE,14,11.0,13.0,48,0.00,,---,0.00,VWS V14.01,2013-04-02 14:09:00,
2013-04-02 10:14:00,52.7,33.0,30.10,North,5,9.0,10.0,47,0.00,,---,0.00,VWS V14.01,2013-04-02 14:14:00,
2013-04-02 10:19:00,53.0,32.8,30.10,NE,51,10.0,13.0,46,0.00,,---,0.00,VWS V14.01,2013-04-02 14:19:00,
2013-04-02 10:24:00,53.1,32.9,30.11,NNE,33,6.0,10.0,46,0.00,,---,0.00,VWS V14.01,2013-04-02 14:24:00,
2013-04-02 10:29:00,53.1,33.4,30.11,NE,50,9.0,12.0,47,0.00,,---,0.00,VWS V14.01,2013-04-02 14:29:00,
2013-04-02 10:34:00,53.1,32.3,30.11,NE,36,11.0,13.0,45,0.00,,---,0.00,VWS V14.01,2013-04-02 14:34:00,
2013-04-02 10:39:00,53.1,32.3,30.11,North,5,4.0,10.0,45,0.00,,---,0.00,VWS V14.01,2013-04-02 14:39:00,
2013-04-02 10:44:00,53.2,32.4,30.11,North,360,5.0,12.0,45,0.00,,---,0.00,VWS V14.01,2013-04-02 14:44:00,
2013-04-02 10:49:00,53.4,32.6,30.11,NNE,30,7.0,13.0,45,0.00,,---,0.00,VWS V14.01,2013-04-02 14:49:00,
2013-04-02 10:54:00,53.6,32.2,30.11,NNE,28,9.0,13.0,44,0.00,,---,0.00,VWS V14.01,2013-04-02 14:54:00,
2013-04-02 10:59:00,53.4,32.0,30.11,NW,325,9.0,10.0,44,0.00,,---,0.00,VWS V14.01,2013-04-02 14:59:00,
2013-04-02 11:04:00,53.5,32.7,30.11,North,10,6.0,8.0,45,0.00,,---,0.00,VWS V14.01,2013-04-02 15:04:00,
2013-04-02 11:10:00,54.1,33.2,30.11,NE,39,5.0,11.0,45,0.00,,---,0.00,VWS V14.01,2013-04-02 15:10:00,
2013-04-02 11:14:00,54.0,32.6,30.10,East,88,7.0,12.0,44,0.00,,---,0.00,VWS V14.01,2013-04-02 15:14:00,
2013-04-02 11:19:00,54.0,33.2,30.10,NE,53,4.0,8.0,45,0.00,,---,0.00,VWS V14.01,2013-04-02 15:19:00,
2013-04-02 11:24:00,54.4,33.5,30.10,NE,34,6.0,11.0,45,0.00,,---,0.00,VWS V14.01,2013-04-02 15:24:00,
2013-04-02 11:29:00,54.8,32.2,30.11,NE,34,5.0,8.0,42,0.00,,---,0.00,VWS V14.01,2013-04-02 15:29:00,
2013-04-02 11:35:00,54.6,32.6,30.11,ENE,62,3.0,5.0,43,0.00,,---,0.00,VWS V14.01,2013-04-02 15:35:00,
2013-04-02 11:40:00,54.8,32.8,30.10,ENE,61,9.0,11.0,43,0.00,,---,0.00,VWS V14.01,2013-04-02 15:40:00,
2013-04-02 11:45:00,55.0,32.3,30.11,NNW,331,7.0,11.0,42,0.00,,---,0.00,VWS V14.01,2013-04-02 15:45:00,
2013-04-02 11:50:00,55.0,31.8,30.10,NE,50,2.0,10.0,41,0.00,,---,0.00,VWS V14.01,2013-04-02 15:50:00,
2013-04-02 11:55:00,55.1,33.0,30.10,North,5,4.0,4.0,43,0.00,,---,0.00,VWS V14.01,2013-04-02 15:55:00,
2013-04-02 12:00:00,55.4,32.7,30.10,NNW,344,3.0,6.0,42,0.00,,---,0.00,VWS V14.01,2013-04-02 16:00:00,
2013-04-02 12:05:00,56.0,31.4,30.10,NNW,335,0.0,6.0,39,0.00,,---,0.00,VWS V14.01,2013-04-02 16:05:00,
2013-04-02 12:10:00,55.9,31.3,30.10,NE,45,2.0,3.0,39,0.00,,---,0.00,VWS V14.01,2013-04-02 16:10:00,
2013-04-02 12:15:00,56.1,32.1,30.10,ENE,59,7.0,10.0,40,0.00,,---,0.00,VWS V14.01,2013-04-02 16:15:00,
2013-04-02 12:20:00,56.2,32.2,30.10,NNE,26,7.0,9.0,40,0.00,,---,0.00,VWS V14.01,2013-04-02 16:20:00,
2013-04-02 12:25:00,56.1,32.1,30.09,ENE,58,4.0,7.0,40,0.00,,---,0.00,VWS V14.01,2013-04-02 16:25:00,
2013-04-02 12:30:00,55.8,33.1,30.09,ENE,74,11.0,11.0,42,0.00,,---,0.00,VWS V14.01,2013-04-02 16:30:00,
2013-04-02 12:35:00,55.4,32.1,30.09,ESE,111,0.0,7.0,41,0.00,,---,0.00,VWS V14.01,2013-04-02 16:35:00,
2013-04-02 12:40:00,55.6,32.9,30.09,SE,129,2.0,3.0,42,0.00,,---,0.00,VWS V14.01,2013-04-02 16:40:00,
2013-04-02 12:45:00,55.5,32.2,30.09,ESE,107,3.0,7.0,41,0.00,,---,0.00,VWS V14.01,2013-04-02 16:45:00,
2013-04-02 12:50:00,55.5,34.5,30.09,SSE,147,5.0,6.0,45,0.00,,---,0.00,VWS V14.01,2013-04-02 16:50:00,
2013-04-02 12:55:00,55.2,35.3,30.09,SSW,196,3.0,8.0,47,0.00,,---,0.00,VWS V14.01,2013-04-02 16:55:00,
2013-04-02 13:00:00,55.0,35.2,30.09,SSW,197,8.0,8.0,47,0.00,,---,0.00,VWS V14.01,2013-04-02 17:00:00,
2013-04-02 13:05:00,54.7,36.4,30.09,SSW,196,1.0,7.0,50,0.00,,---,0.00,VWS V14.01,2013-04-02 17:05:00,
2013-04-02 13:10:00,54.3,38.5,30.09,SSE,156,10.0,11.0,55,0.00,,---,0.00,VWS V14.01,2013-04-02 17:10:00,
2013-04-02 13:15:00,53.1,36.9,30.09,SSE,163,10.0,12.0,54,0.00,,---,0.00,VWS V14.01,2013-04-02 17:15:00,
2013-04-02 13:20:00,52.7,36.5,30.09,South,170,11.0,11.0,54,0.00,,---,0.00,VWS V14.01,2013-04-02 17:20:00,
2013-04-02 13:25:00,52.9,36.7,30.09,South,177,10.0,12.0,54,0.00,,---,0.00,VWS V14.01,2013-04-02 17:25:00,
2013-04-02 13:30:00,52.8,36.6,30.09,SSE,164,9.0,12.0,54,0.00,,---,0.00,VWS V14.01,2013-04-02 17:30:00,
2013-04-02 13:35:00,52.8,38.9,30.08,South,171,12.0,13.0,59,0.00,,---,0.00,VWS V14.01,2013-04-02 17:35:00,
2013-04-02 13:40:00,52.5,38.6,30.08,SSE,162,11.0,13.0,59,0.00,,---,0.00,VWS V14.01,2013-04-02 17:40:00,
2013-04-02 13:45:00,52.6,37.8,30.08,South,175,11.0,12.0,57,0.00,,---,0.00,VWS V14.01,2013-04-02 17:45:00,
2013-04-02 13:50:00,52.5,37.7,30.08,SSE,163,9.0,11.0,57,0.00,,---,0.00,VWS V14.01,2013-04-02 17:50:00,
2013-04-02 13:55:00,52.5,40.7,30.08,SSE,164,9.0,12.0,64,0.00,,---,0.00,VWS V14.01,2013-04-02 17:55:00,
2013-04-02 14:00:00,52.2,39.2,30.07,SSE,164,11.0,13.0,61,0.00,,---,0.00,VWS V14.01,2013-04-02 18:00:00,
2013-04-02 14:05:00,52.2,38.8,30.07,SSE,166,10.0,13.0,60,0.00,,---,0.00,VWS V14.01,2013-04-02 18:05:00,
2013-04-02 14:10:00,52.2,38.8,30.07,South,169,9.0,11.0,60,0.00,,---,0.00,VWS V14.01,2013-04-02 18:10:00,
2013-04-02 14:15:00,52.2,38.3,30.07,SSE,152,12.0,14.0,59,0.00,,---,0.00,VWS V14.01,2013-04-02 18:15:00,
2013-04-02 14:20:00,52.2,38.8,30.06,SSE,166,10.0,13.0,60,0.00,,---,0.00,VWS V14.01,2013-04-02 18:20:00,
2013-04-02 14:26:00,52.2,38.3,30.06,SSE,156,12.0,12.0,59,0.00,,---,0.00,VWS V14.01,2013-04-02 18:26:00,
2013-04-02 14:31:00,52.3,39.3,30.06,SSE,167,9.0,11.0,61,0.00,,---,0.00,VWS V14.01,2013-04-02 18:31:00,
2013-04-02 14:36:00,52.3,39.7,30.06,SSE,162,11.0,11.0,62,0.00,,---,0.00,VWS V14.01,2013-04-02 18:36:00,
2013-04-02 14:41:00,52.3,39.3,30.06,South,170,9.0,12.0,61,0.00,,---,0.00,VWS V14.01,2013-04-02 18:41:00,
2013-04-02 14:46:00,52.3,38.8,30.06,South,175,9.0,11.0,60,0.00,,---,0.00,VWS V14.01,2013-04-02 18:46:00,
2013-04-02 14:51:00,52.4,40.2,30.06,SSE,166,11.0,12.0,63,0.00,,---,0.00,VWS V14.01,2013-04-02 18:51:00,
2013-04-02 14:56:00,52.3,38.4,30.06,SSE,165,11.0,13.0,59,0.00,,---,0.00,VWS V14.01,2013-04-02 18:56:00,
2013-04-02 15:01:00,52.4,40.6,30.06,SSW,201,7.0,13.0,64,0.00,,---,0.00,VWS V14.01,2013-04-02 19:01:00,
2013-04-02 15:06:00,52.8,39.7,30.06,South,188,7.0,13.0,61,0.00,,---,0.00,VWS V14.01,2013-04-02 19:06:00,
2013-04-02 15:12:00,53.0,39.5,30.06,SSW,192,6.0,12.0,60,0.00,,---,0.00,VWS V14.01,2013-04-02 19:12:00,
2013-04-02 15:17:00,52.9,39.0,30.06,South,171,9.0,12.0,59,0.00,,---,0.00,VWS V14.01,2013-04-02 19:17:00,
2013-04-02 15:22:00,52.6,39.5,30.06,SSE,167,10.0,14.0,61,0.00,,---,0.00,VWS V14.01,2013-04-02 19:22:00,
2013-04-02 15:27:00,52.3,40.1,30.05,SSE,159,9.0,12.0,63,0.00,,---,0.00,VWS V14.01,2013-04-02 19:27:00,
2013-04-02 15:32:00,52.2,40.8,30.05,SSE,166,10.0,14.0,65,0.00,,---,0.00,VWS V14.01,2013-04-02 19:32:00,
2013-04-02 15:37:00,52.1,41.5,30.05,SSE,166,11.0,12.0,67,0.00,,---,0.00,VWS V14.01,2013-04-02 19:37:00,
2013-04-02 15:42:00,52.0,41.0,30.05,SSE,161,11.0,14.0,66,0.00,,---,0.00,VWS V14.01,2013-04-02 19:42:00,
2013-04-02 15:47:00,52.0,40.6,30.05,South,178,7.0,12.0,65,0.00,,---,0.00,VWS V14.01,2013-04-02 19:47:00,
2013-04-02 15:52:00,52.1,41.1,30.05,SSE,163,11.0,12.0,66,0.00,,---,0.00,VWS V14.01,2013-04-02 19:52:00,
2013-04-02 15:57:00,52.0,41.4,30.05,SSE,164,9.0,10.0,67,0.00,,---,0.00,VWS V14.01,2013-04-02 19:57:00,
2013-04-02 16:02:00,52.1,41.5,30.05,South,169,9.0,9.0,67,0.00,,---,0.00,VWS V14.01,2013-04-02 20:02:00,
2013-04-02 16:07:00,51.9,40.5,30.05,SSE,164,9.0,10.0,65,0.00,,---,0.00,VWS V14.01,2013-04-02 20:07:00,
2013-04-02 16:12:00,52.0,41.8,30.05,South,169,10.0,12.0,68,0.00,,---,0.00,VWS V14.01,2013-04-02 20:12:00,
2013-04-02 16:17:00,51.9,40.9,30.05,SSE,167,10.0,11.0,66,0.00,,---,0.00,VWS V14.01,2013-04-02 20:17:00,
2013-04-02 16:22:00,52.0,41.0,30.05,South,169,11.0,11.0,66,0.00,,---,0.00,VWS V14.01,2013-04-02 20:22:00,
2013-04-02 16:27:00,51.9,41.3,30.04,South,169,11.0,14.0,67,0.00,,---,0.00,VWS V14.01,2013-04-02 20:27:00,
2013-04-02 16:32:00,52.1,42.2,30.04,South,174,14.0,14.0,69,0.00,,---,0.00,VWS V14.01,2013-04-02 20:32:00,
2013-04-02 16:37:00,51.9,40.5,30.04,SSE,166,12.0,12.0,65,0.00,,---,0.00,VWS V14.01,2013-04-02 20:37:00,
2013-04-02 16:43:00,52.0,40.2,30.04,South,171,14.0,15.0,64,0.00,,---,0.00,VWS V14.01,2013-04-02 20:43:00,
2013-04-02 16:47:00,52.0,40.6,30.05,South,175,10.0,12.0,65,0.00,,---,0.00,VWS V14.01,2013-04-02 20:47:00,
2013-04-02 16:52:00,52.1,40.7,30.05,South,178,13.0,13.0,65,0.00,,---,0.00,VWS V14.01,2013-04-02 20:52:00,
2013-04-02 16:58:00,52.3,40.9,30.04,South,170,11.0,14.0,65,0.00,,---,0.00,VWS V14.01,2013-04-02 20:58:00,
2013-04-02 17:03:00,52.1,41.5,30.05,South,179,11.0,13.0,67,0.00,,---,0.00,VWS V14.01,2013-04-02 21:03:00,
2013-04-02 17:07:00,52.1,40.7,30.05,SSE,163,11.0,14.0,65,0.00,,---,0.00,VWS V14.01,2013-04-02 21:07:00,
2013-04-02 17:13:00,52.2,42.0,30.05,South,178,11.0,11.0,68,0.00,,---,0.00,VWS V14.01,2013-04-02 21:13:00,
2013-04-02 17:18:00,52.3,42.5,30.05,South,174,10.0,12.0,69,0.00,,---,0.00,VWS V14.01,2013-04-02 21:18:00,
2013-04-02 17:22:00,52.4,41.4,30.05,South,184,10.0,13.0,66,0.00,,---,0.00,VWS V14.01,2013-04-02 21:22:00,
2013-04-02 17:27:00,52.7,41.7,30.05,South,186,6.0,9.0,66,0.00,,---,0.00,VWS V14.01,2013-04-02 21:27:00,
2013-04-02 17:32:00,52.8,42.2,30.05,South,179,8.0,9.0,67,0.00,,---,0.00,VWS V14.01,2013-04-02 21:32:00,
2013-04-02 17:37:00,52.7,41.7,30.06,South,175,6.0,9.0,66,0.00,,---,0.00,VWS V14.01,2013-04-02 21:37:00,
2013-04-02 17:42:00,52.8,41.8,30.06,South,184,9.0,11.0,66,0.00,,---,0.00,VWS V14.01,2013-04-02 21:42:00,
2013-04-02 17:47:00,52.7,40.9,30.06,South,186,8.0,10.0,64,0.00,,---,0.00,VWS V14.01,2013-04-02 21:47:00,
2013-04-02 17:53:00,52.8,41.8,30.06,South,177,8.0,9.0,66,0.00,,---,0.00,VWS V14.01,2013-04-02 21:53:00,
2013-04-02 17:58:00,52.9,41.9,30.06,South,170,9.0,9.0,66,0.00,,---,0.00,VWS V14.01,2013-04-02 21:58:00,
2013-04-02 18:03:00,52.9,41.9,30.07,South,187,10.0,10.0,66,0.00,,---,0.00,VWS V14.01,2013-04-02 22:03:00,
2013-04-02 18:08:00,53.0,42.0,30.07,SSW,196,8.0,10.0,66,0.00,,---,0.00,VWS V14.01,2013-04-02 22:08:00,
2013-04-02 18:13:00,52.8,41.8,30.07,SSW,195,7.0,10.0,66,0.00,,---,0.00,VWS V14.01,2013-04-02 22:13:00,
2013-04-02 18:18:00,52.9,42.6,30.07,SSW,198,9.0,12.0,68,0.00,,---,0.00,VWS V14.01,2013-04-02 22:18:00,
2013-04-02 18:23:00,52.7,42.1,30.07,SSW,207,8.0,11.0,67,0.00,,---,0.00,VWS V14.01,2013-04-02 22:23:00,
2013-04-02 18:28:00,52.7,42.1,30.07,SSE,168,6.0,10.0,67,0.00,,---,0.00,VWS V14.01,2013-04-02 22:28:00,
2013-04-02 18:33:00,52.8,42.5,30.07,South,190,10.0,10.0,68,0.00,,---,0.00,VWS V14.01,2013-04-02 22:33:00,
2013-04-02 18:38:00,52.8,41.8,30.07,SSW,202,9.0,9.0,66,0.00,,---,0.00,VWS V14.01,2013-04-02 22:38:00,
2013-04-02 18:43:00,52.7,41.7,30.07,SSW,196,8.0,10.0,66,0.00,,---,0.00,VWS V14.01,2013-04-02 22:43:00,
2013-04-02 18:48:00,52.8,41.8,30.07,South,190,8.0,12.0,66,0.00,,---,0.00,VWS V14.01,2013-04-02 22:48:00,
2013-04-02 18:53:00,52.9,42.3,30.07,SSW,195,8.0,9.0,67,0.00,,---,0.00,VWS V14.01,2013-04-02 22:53:00,
2013-04-02 18:58:00,52.8,42.2,30.06,SSW,205,8.0,10.0,67,0.00,,---,0.00,VWS V14.01,2013-04-02 22:58:00,
2013-04-02 19:03:00,52.8,42.5,30.07,SSW,195,7.0,8.0,68,0.00,,---,0.00,VWS V14.01,2013-04-02 23:03:00,
2013-04-02 19:08:00,52.8,42.2,30.07,South,186,4.0,8.0,67,0.00,,---,0.00,VWS V14.01,2013-04-02 23:08:00,
2013-04-02 19:13:00,52.8,42.2,30.07,South,173,8.0,11.0,67,0.00,,---,0.00,VWS V14.01,2013-04-02 23:13:00,
2013-04-02 19:18:00,52.9,43.0,30.07,South,181,4.0,8.0,69,0.00,,---,0.00,VWS V14.01,2013-04-02 23:18:00,
2013-04-02 19:23:00,52.8,42.9,30.07,South,177,4.0,8.0,69,0.00,,---,0.00,VWS V14.01,2013-04-02 23:23:00,
2013-04-02 19:28:00,52.7,42.5,30.07,South,171,5.0,9.0,68,0.00,,---,0.00,VWS V14.01,2013-04-02 23:28:00,
2013-04-02 19:33:00,52.8,43.3,30.07,SSW,209,10.0,10.0,70,0.00,,---,0.00,VWS V14.01,2013-04-02 23:33:00,
2013-04-02 19:38:00,52.9,43.0,30.07,SSW,211,8.0,10.0,69,0.00,,---,0.00,VWS V14.01,2013-04-02 23:38:00,
2013-04-02 19:43:00,53.0,43.5,30.08,SSW,210,9.0,11.0,70,0.00,,---,0.00,VWS V14.01,2013-04-02 23:43:00,
2013-04-02 19:48:00,53.0,43.1,30.08,SW,219,9.0,9.0,69,0.00,,---,0.00,VWS V14.01,2013-04-02 23:48:00,
2013-04-02 19:53:00,53.2,43.7,30.08,SSW,207,8.0,10.0,70,0.00,,---,0.00,VWS V14.01,2013-04-02 23:53:00,
2013-04-02 19:58:00,53.2,43.7,30.08,SSW,213,10.0,11.0,70,0.00,,---,0.00,VWS V14.01,2013-04-02 23:58:00,
2013-04-02 20:03:00,53.2,43.3,30.08,SW,217,9.0,11.0,69,0.00,,---,0.00,VWS V14.01,2013-04-03 00:03:00,
2013-04-02 20:08:00,53.3,43.8,30.08,SW,217,11.0,13.0,70,0.00,,---,0.00,VWS V14.01,2013-04-03 00:08:00,
2013-04-02 20:13:00,53.3,43.8,30.08,SSW,211,10.0,12.0,70,0.00,,---,0.00,VWS V14.01,2013-04-03 00:13:00,
2013-04-02 20:18:00,53.3,43.4,30.08,SW,219,11.0,12.0,69,0.00,,---,0.00,VWS V14.01,2013-04-03 00:18:00,
2013-04-02 20:23:00,53.4,43.1,30.09,SW,225,10.0,11.0,68,0.00,,---,0.00,VWS V14.01,2013-04-03 00:23:00,
2013-04-02 20:28:00,53.6,44.4,30.08,SW,227,10.0,10.0,71,0.00,,---,0.00,VWS V14.01,2013-04-03 00:28:00,
2013-04-02 20:33:00,53.6,44.4,30.09,SW,228,11.0,12.0,71,0.00,,---,0.00,VWS V14.01,2013-04-03 00:33:00,
2013-04-02 20:38:00,53.6,44.4,30.09,SW,229,9.0,11.0,71,0.00,,---,0.00,VWS V14.01,2013-04-03 00:38:00,
2013-04-02 20:44:00,53.6,44.4,30.09,SW,229,11.0,11.0,71,0.00,,---,0.00,VWS V14.01,2013-04-03 00:44:00,
2013-04-02 20:48:00,53.7,44.5,30.10,SW,230,8.0,11.0,71,0.00,,---,0.00,VWS V14.01,2013-04-03 00:48:00,
2013-04-02 20:54:00,53.7,44.9,30.09,SW,222,9.0,10.0,72,0.00,,---,0.00,VWS V14.01,2013-04-03 00:54:00,
2013-04-02 20:59:00,53.7,44.9,30.09,SW,228,7.0,9.0,72,0.00,,---,0.00,VWS V14.01,2013-04-03 00:59:00,
2013-04-02 21:04:00,53.7,45.3,30.10,SW,230,7.0,10.0,73,0.00,,---,0.00,VWS V14.01,2013-04-03 01:04:00,
2013-04-02 21:09:00,53.8,45.4,30.10,SW,219,6.0,9.0,73,0.00,,---,0.00,VWS V14.01,2013-04-03 01:09:00,
2013-04-02 21:14:00,53.9,45.8,30.10,SW,224,9.0,10.0,74,0.00,,---,0.00,VWS V14.01,2013-04-03 01:14:00,
2013-04-02 21:19:00,53.9,45.8,30.10,SW,225,9.0,10.0,74,0.00,,---,0.00,VWS V14.01,2013-04-03 01:19:00,
2013-04-02 21:24:00,53.8,45.7,30.11,SW,223,9.0,11.0,74,0.00,,---,0.00,VWS V14.01,2013-04-03 01:24:00,
2013-04-02 21:29:00,53.9,46.2,30.11,SW,221,8.0,9.0,75,0.00,,---,0.00,VWS V14.01,2013-04-03 01:29:00,
2013-04-02 21:34:00,53.8,46.1,30.11,SW,227,7.0,9.0,75,0.00,,---,0.00,VWS V14.01,2013-04-03 01:34:00,
2013-04-02 21:39:00,53.9,46.2,30.10,SSW,213,7.0,8.0,75,0.00,,---,0.00,VWS V14.01,2013-04-03 01:39:00,
2013-04-02 21:44:00,53.9,46.5,30.11,SSW,209,7.0,7.0,76,0.00,,---,0.00,VWS V14.01,2013-04-03 01:44:00,
2013-04-02 21:49:00,53.8,46.4,30.11,SSW,212,6.0,7.0,76,0.00,,---,0.00,VWS V14.01,2013-04-03 01:49:00,
2013-04-02 21:54:00,53.9,46.5,30.11,SSW,211,6.0,7.0,76,0.00,,---,0.00,VWS V14.01,2013-04-03 01:54:00,
2013-04-02 21:59:00,54.1,47.1,30.11,SW,214,5.0,7.0,77,0.00,,---,0.00,VWS V14.01,2013-04-03 01:59:00,
2013-04-02 22:04:00,54.0,47.0,30.11,SSW,208,6.0,6.0,77,0.00,,---,0.00,VWS V14.01,2013-04-03 02:04:00,
2013-04-02 22:09:00,54.0,47.0,30.10,SSW,202,6.0,6.0,77,0.00,,---,0.00,VWS V14.01,2013-04-03 02:09:00,
2013-04-02 22:14:00,54.0,47.3,30.11,SSW,202,5.0,6.0,78,0.00,,---,0.00,VWS V14.01,2013-04-03 02:14:00,
2013-04-02 22:19:00,54.0,47.3,30.11,SSW,202,6.0,6.0,78,0.00,,---,0.00,VWS V14.01,2013-04-03 02:19:00,
2013-04-02 22:24:00,54.0,47.6,30.11,SSW,201,5.0,6.0,79,0.00,,---,0.00,VWS V14.01,2013-04-03 02:24:00,
2013-04-02 22:29:00,53.9,47.5,30.11,SSW,197,5.0,6.0,79,0.00,,---,0.00,VWS V14.01,2013-04-03 02:29:00,
2013-04-02 22:34:00,53.9,47.9,30.11,SSW,204,6.0,6.0,80,0.00,,---,0.00,VWS V14.01,2013-04-03 02:34:00,
2013-04-02 22:39:00,53.9,47.9,30.11,SSW,211,5.0,7.0,80,0.00,,---,0.00,VWS V14.01,2013-04-03 02:39:00,
2013-04-02 22:44:00,53.9,47.9,30.11,SW,220,5.0,6.0,80,0.00,,---,0.00,VWS V14.01,2013-04-03 02:44:00,
2013-04-02 22:49:00,53.9,47.9,30.10,SW,222,6.0,6.0,80,0.00,,---,0.00,VWS V14.01,2013-04-03 02:49:00,
2013-04-02 22:54:00,53.9,47.9,30.11,SW,224,7.0,7.0,80,0.00,,---,0.00,VWS V14.01,2013-04-03 02:54:00,
2013-04-02 22:59:00,54.0,48.3,30.11,SW,229,5.0,7.0,81,0.00,,---,0.00,VWS V14.01,2013-04-03 02:59:00,
2013-04-02 23:04:00,54.0,48.6,30.11,SW,234,4.0,5.0,82,0.00,,---,0.00,VWS V14.01,2013-04-03 03:04:00,
2013-04-02 23:09:00,54.0,48.6,30.11,SW,232,4.0,6.0,82,0.00,,---,0.00,VWS V14.01,2013-04-03 03:09:00,
2013-04-02 23:14:00,53.9,48.9,30.11,SW,232,4.0,5.0,83,0.00,,---,0.00,VWS V14.01,2013-04-03 03:14:00,
2013-04-02 23:19:00,53.8,48.8,30.10,SW,230,3.0,4.0,83,0.00,,---,0.00,VWS V14.01,2013-04-03 03:19:00,
2013-04-02 23:25:00,53.8,48.8,30.10,SSW,210,3.0,4.0,83,0.00,,---,0.00,VWS V14.01,2013-04-03 03:25:00,
2013-04-02 23:30:00,53.7,49.0,30.09,SSW,210,3.0,3.0,84,0.00,,---,0.00,VWS V14.01,2013-04-03 03:30:00,
2013-04-02 23:35:00,53.7,49.0,30.09,SSW,210,0.0,0.0,84,0.00,,---,0.00,VWS V14.01,2013-04-03 03:35:00,
2013-04-02 23:40:00,53.6,48.9,30.09,SSW,210,0.0,0.0,84,0.00,,---,0.00,VWS V14.01,2013-04-03 03:40:00,
2013-04-02 23:45:00,53.6,48.9,30.09,SSW,209,0.0,0.0,84,0.00,,---,0.00,VWS V14.01,2013-04-03 03:45:00,
2013-04-02 23:50:00,53.7,49.0,30.09,SSW,209,0.0,0.0,84,0.00,,---,0.00,VWS V14.01,2013-04-03 03:50:00,
2013-04-02 23:55:00,53.6,48.9,30.09,SSW,199,2.0,2.0,84,0.00,,---,0.00,VWS V14.01,2013-04-03 03:55:00,